,,Stat6,,Stat2,,Stat8,,Stat9,,Stat10,,Wind1,,Wind1,
time,status,PA1M_AVG,status,PR1M_SUM,status,RH1M_AVG,status,SR1M_AVG,status,TA1M_AVG,status,W1dAve1m,status,W1sAve1m,
2005-06-08, 00:00:00,VALID,917.625,VALID,0,VALID,98.2531,VALID,-0.0339617,VALID,20.5649,VALID,335,VALID,0.338021,
2005-06-08, 00:01:00,VALID,917.635,VALID,0,VALID,98.0394,VALID,-0.0509425,VALID,20.5818,VALID,325,VALID,0.376042,
2005-06-08, 00:02:00,VALID,917.639,VALID,0,VALID,97.9415,VALID,-0.0169808,VALID,20.5813,VALID,329,VALID,0.514453,
2005-06-08, 00:03:01,VALID,917.661,VALID,0,VALID,97.7762,VALID,-0.0339617,VALID,20.5845,VALID,340,VALID,0.364258,
2005-06-08, 00:04:00,VALID,917.656,VALID,0,VALID,97.733,VALID,-0.0679233,VALID,20.5975,VALID,340,VALID,0.528023,
2005-06-08, 00:05:00,VALID,917.659,VALID,0,VALID,97.6999,VALID,-0.0509425,VALID,20.5942,VALID,339,VALID,0.406822,
2005-06-08, 00:06:00,VALID,917.661,VALID,0,VALID,97.6758,VALID,-0.0339617,VALID,20.5845,VALID,305,VALID,0.478338,
2005-06-08, 00:07:00,VALID,917.659,VALID,0,VALID,97.7635,VALID,-0.0679233,VALID,20.6077,VALID,301,VALID,0.402902,
2005-06-08, 00:08:00,VALID,917.656,VALID,0,VALID,97.6847,VALID,-0.0339617,VALID,20.6071,VALID,301,VALID,0.373047,
2005-06-08, 00:09:00,VALID,917.641,VALID,0,VALID,97.7215,VALID,-0.0339617,VALID,20.5907,VALID,302,VALID,0.470982,
2005-06-08, 00:10:00,VALID,917.622,VALID,0,VALID,97.7457,VALID,-0.0169808,VALID,20.5942,VALID,323,VALID,0.557884,
2005-06-08, 00:11:00,VALID,917.625,VALID,0,VALID,97.8487,VALID,-0.0339617,VALID,20.5816,VALID,312,VALID,0.500908,
2005-06-08, 00:12:00,VALID,917.611,VALID,0,VALID,97.9695,VALID,-0.0339617,VALID,20.5746,VALID,288,VALID,0.437674,
2005-06-08, 00:13:00,VALID,917.612,VALID,0,VALID,98.0407,VALID,-0.0339617,VALID,20.5816,VALID,327,VALID,0.671875,
2005-06-08, 00:14:00,VALID,917.606,VALID,0,VALID,98.1806,VALID,0,VALID,20.5818,VALID,314,VALID,0.324751,
2005-06-08, 00:15:00,VALID,917.593,VALID,0,VALID,98.3624,VALID,0,VALID,20.5885,VALID,311,VALID,0.0357143,
2005-06-08, 00:16:00,VALID,917.576,VALID,0,VALID,98.5557,VALID,0,VALID,20.591,VALID,311,VALID,0.106889,
2005-06-08, 00:17:00,VALID,917.569,VALID,0,VALID,98.7388,VALID,-0.0169808,VALID,20.5977,VALID,311,VALID,0.14098,
2005-06-08, 00:18:00,VALID,917.566,VALID,0,VALID,98.7299,VALID,-0.0169808,VALID,20.6106,VALID,311,VALID,0.143483,
2005-06-08, 00:19:01,VALID,917.555,VALID,0,VALID,98.4235,VALID,0,VALID,20.6176,VALID,311,VALID,0.373047,
2005-06-08, 00:20:00,VALID,917.544,VALID,0,VALID,98.1335,VALID,-0.0169808,VALID,20.6203,VALID,310,VALID,0.440549,
2005-06-08, 00:21:01,VALID,917.544,VALID,0,VALID,98.07,VALID,-0.0169808,VALID,20.6367,VALID,307,VALID,0.231585,
2005-06-08, 00:22:00,VALID,917.525,VALID,0,VALID,98.1844,VALID,-0.0339617,VALID,20.6394,VALID,306,VALID,0,
2005-06-08, 00:23:00,VALID,917.51,VALID,0,VALID,98.2137,VALID,-0.0339617,VALID,20.6494,VALID,306,VALID,0,
2005-06-08, 00:24:00,VALID,917.5,VALID,0,VALID,98.1628,VALID,-0.0339617,VALID,20.6456,VALID,306,VALID,0.0926067,
2005-06-08, 00:25:00,VALID,917.486,VALID,0,VALID,98.2302,VALID,-0.0679233,VALID,20.6456,VALID,322,VALID,0.470749,
2005-06-08, 00:26:00,VALID,917.482,VALID,0,VALID,97.9975,VALID,-0.0169808,VALID,20.633,VALID,350,VALID,0.311047,
2005-06-08, 00:27:01,VALID,917.46,VALID,0,VALID,98.2454,VALID,0,VALID,20.6491,VALID,350,VALID,0.202217,
2005-06-08, 00:28:00,VALID,917.47,VALID,0,VALID,98.4082,VALID,-0.0339617,VALID,20.6394,VALID,350,VALID,0.0171875,
2005-06-08, 00:29:00,VALID,917.443,VALID,0,VALID,98.4247,VALID,0,VALID,20.6367,VALID,350,VALID,0.000762195,
2005-06-08, 00:30:01,VALID,917.443,VALID,0,VALID,98.4476,VALID,-0.0339617,VALID,20.6141,VALID,347,VALID,0.288699,
2005-06-08, 00:31:00,VALID,917.425,VALID,0,VALID,98.5977,VALID,-0.0339617,VALID,20.6044,VALID,345,VALID,0.127477,
2005-06-08, 00:32:01,VALID,917.416,VALID,0,VALID,98.8037,VALID,-0.0339617,VALID,20.6203,VALID,346,VALID,0,
2005-06-08, 00:33:01,VALID,917.402,VALID,0,VALID,99.0211,VALID,-0.0169808,VALID,20.6432,VALID,346,VALID,0,
2005-06-08, 00:34:01,VALID,917.394,VALID,0,VALID,99.0516,VALID,-0.0339617,VALID,20.6491,VALID,346,VALID,0.0190549,
2005-06-08, 00:35:01,VALID,917.381,VALID,0,VALID,98.9321,VALID,-0.0509425,VALID,20.6265,VALID,346,VALID,0.0430519,
2005-06-08, 00:36:01,VALID,917.377,VALID,0,VALID,98.6358,VALID,0,VALID,20.6171,VALID,316,VALID,0.327009,
2005-06-08, 00:37:00,VALID,917.346,VALID,0,VALID,98.4731,VALID,0,VALID,20.6012,VALID,322,VALID,0.54633,
2005-06-08, 00:38:01,VALID,917.321,VALID,0,VALID,98.4959,VALID,-0.0339617,VALID,20.5907,VALID,333,VALID,0.339753,
2005-06-08, 00:39:01,VALID,917.289,VALID,0,VALID,98.426,VALID,-0.0169808,VALID,20.581,VALID,334,VALID,0.506811,
2005-06-08, 00:40:00,VALID,917.24,VALID,0,VALID,98.543,VALID,-0.0169808,VALID,20.5942,VALID,320,VALID,0.103993,
2005-06-08, 00:41:01,VALID,917.192,VALID,0,VALID,98.6193,VALID,-0.0339617,VALID,20.6106,VALID,320,VALID,0.258213,
2005-06-08, 00:42:01,VALID,917.142,VALID,0,VALID,98.4654,VALID,0,VALID,20.5977,VALID,320,VALID,0.12843,
2005-06-08, 00:43:01,VALID,917.114,VALID,0,VALID,98.5748,VALID,0,VALID,20.5781,VALID,342,VALID,0.398996,
2005-06-08, 00:44:01,VALID,917.077,VALID,0,VALID,98.7439,VALID,-0.0169808,VALID,20.5843,VALID,346,VALID,0.586483,
2005-06-08, 00:45:01,VALID,917.072,VALID,0,VALID,98.6981,VALID,-0.0339617,VALID,20.5848,VALID,355,VALID,0.501116,
2005-06-08, 00:46:00,VALID,917.05,VALID,0,VALID,98.8507,VALID,0,VALID,20.5751,VALID,352,VALID,0.763393,
2005-06-08, 00:47:01,VALID,917.031,VALID,0,VALID,98.763,VALID,-0.0169808,VALID,20.5426,VALID,341,VALID,0.804497,
2005-06-08, 00:48:01,VALID,917.015,VALID,0,VALID,98.7986,VALID,-0.0169808,VALID,20.5232,VALID,330,VALID,0.861073,
2005-06-08, 00:49:01,VALID,917.004,VALID,0,VALID,98.7643,VALID,-0.0339617,VALID,20.5075,VALID,336,VALID,0.824124,
2005-06-08, 00:50:01,VALID,916.99,VALID,0,VALID,98.9168,VALID,0,VALID,20.5043,VALID,4,VALID,0.624589,
2005-06-08, 00:51:01,VALID,916.985,VALID,0,VALID,99.0198,VALID,-0.0509425,VALID,20.5008,VALID,343,VALID,0.737537,
2005-06-08, 00:52:01,VALID,916.98,VALID,0,VALID,98.9944,VALID,0.0339617,VALID,20.474,VALID,347,VALID,0.835938,
2005-06-08, 00:53:00,VALID,916.962,VALID,0,VALID,99.1457,VALID,0.0509425,VALID,20.4834,VALID,354,VALID,0.470982,
2005-06-08, 00:54:01,VALID,916.947,VALID,0,VALID,99.2182,VALID,0.0849042,VALID,20.4898,VALID,352,VALID,0.455412,
2005-06-08, 00:55:01,VALID,916.928,VALID,0,VALID,99.2131,VALID,0.0849042,VALID,20.4732,VALID,349,VALID,0.56108,
2005-06-08, 00:56:01,VALID,916.921,VALID,0.2,VALID,99.1775,VALID,0.0849042,VALID,20.4769,VALID,347,VALID,0.462984,
2005-06-08, 00:57:01,VALID,916.888,VALID,0,VALID,99.1318,VALID,0.0849042,VALID,20.4441,VALID,3,VALID,1.13415,
2005-06-08, 00:58:01,VALID,916.858,VALID,0,VALID,99.133,VALID,0.0679233,VALID,20.4514,VALID,4,VALID,0.809896,
2005-06-08, 00:59:01,VALID,916.831,VALID,0,VALID,99.1216,VALID,0.0509425,VALID,20.4672,VALID,4,VALID,0.938227,
2005-06-08, 01:00:01,VALID,916.799,VALID,0,VALID,98.9575,VALID,0.0849042,VALID,20.4672,VALID,11,VALID,0.752083,
2005-06-08, 01:01:01,VALID,916.77,VALID,0,VALID,98.9041,VALID,0.0509425,VALID,20.464,VALID,3,VALID,0.460007,
2005-06-08, 01:02:01,VALID,916.734,VALID,0,VALID,98.8075,VALID,0.0679233,VALID,20.4672,VALID,347,VALID,0.420099,
2005-06-08, 01:03:01,VALID,916.731,VALID,0,VALID,98.8736,VALID,0.0679233,VALID,20.4675,VALID,346,VALID,0.00685976,
2005-06-08, 01:04:01,VALID,916.725,VALID,0,VALID,98.9168,VALID,0.0679233,VALID,20.4799,VALID,346,VALID,0.273624,
2005-06-08, 01:05:01,VALID,916.725,VALID,0,VALID,98.8266,VALID,0.0169808,VALID,20.4702,VALID,346,VALID,0.12128,
2005-06-08, 01:06:01,VALID,916.717,VALID,0,VALID,98.927,VALID,0.0509425,VALID,20.4834,VALID,346,VALID,0.117374,
2005-06-08, 01:07:01,VALID,916.714,VALID,0,VALID,98.9143,VALID,0,VALID,20.4842,VALID,346,VALID,0.0123547,
2005-06-08, 01:08:01,VALID,916.71,VALID,0,VALID,99.0224,VALID,-0.0849042,VALID,20.5143,VALID,346,VALID,0.292783,
2005-06-08, 01:09:01,VALID,916.703,VALID,0,VALID,99.0834,VALID,-0.0509425,VALID,20.5202,VALID,346,VALID,0.0933866,
2005-06-08, 01:10:01,VALID,916.697,VALID,0,VALID,99.0593,VALID,-0.0679233,VALID,20.5374,VALID,346,VALID,0.245094,
2005-06-08, 01:11:01,VALID,916.701,VALID,0,VALID,98.8291,VALID,-0.0339617,VALID,20.5242,VALID,346,VALID,0.427083,
2005-06-08, 01:12:01,VALID,916.699,VALID,0,VALID,98.941,VALID,-0.0679233,VALID,20.5113,VALID,346,VALID,0.263951,
2005-06-08, 01:13:01,VALID,916.693,VALID,0,VALID,98.8825,VALID,-0.0679233,VALID,20.4981,VALID,346,VALID,0.380208,
2005-06-08, 01:14:01,VALID,916.691,VALID,0,VALID,98.8139,VALID,-0.0339617,VALID,20.5051,VALID,346,VALID,0.359908,
2005-06-08, 01:15:00,VALID,916.694,VALID,0,VALID,98.8863,VALID,-0.0339617,VALID,20.5115,VALID,346,VALID,0.508557,
2005-06-08, 01:16:00,VALID,916.674,VALID,0,VALID,98.6613,VALID,-0.0679233,VALID,20.5051,VALID,352,VALID,0.627604,
2005-06-08, 01:17:00,VALID,916.669,VALID,0,VALID,98.6015,VALID,-0.0169808,VALID,20.4685,VALID,360,VALID,0.380907,
2005-06-08, 01:18:00,VALID,916.64,VALID,0,VALID,98.6078,VALID,-0.0509425,VALID,20.4715,VALID,353,VALID,0.44029,
2005-06-08, 01:19:00,VALID,916.624,VALID,0,VALID,98.5964,VALID,-0.0509425,VALID,20.4693,VALID,349,VALID,0.350291,
2005-06-08, 01:20:00,VALID,916.593,VALID,0,VALID,98.5977,VALID,-0.0509425,VALID,20.4561,VALID,347,VALID,0.378806,
2005-06-08, 01:21:00,VALID,916.575,VALID,0,VALID,98.5684,VALID,-0.0339617,VALID,20.4499,VALID,340,VALID,0.538707,
2005-06-08, 01:22:00,VALID,916.569,VALID,0,VALID,98.66,VALID,-0.0509425,VALID,20.4305,VALID,340,VALID,0.387251,
2005-06-08, 01:23:00,VALID,916.56,VALID,0,VALID,98.8787,VALID,-0.0849042,VALID,20.4271,VALID,340,VALID,0.262847,
2005-06-08, 01:24:00,VALID,916.57,VALID,0,VALID,98.9321,VALID,-0.0339617,VALID,20.4209,VALID,340,VALID,0.0152778,
2005-06-08, 01:25:00,VALID,916.576,VALID,0,VALID,99.0974,VALID,-0.0849042,VALID,20.4375,VALID,340,VALID,0.274346,
2005-06-08, 01:26:00,VALID,916.585,VALID,0,VALID,99.0694,VALID,-0.0679233,VALID,20.4181,VALID,340,VALID,0.112305,
2005-06-08, 01:27:00,VALID,916.58,VALID,0,VALID,99.0351,VALID,0,VALID,20.4179,VALID,336,VALID,0.311979,
2005-06-08, 01:28:00,VALID,916.568,VALID,0,VALID,99.0478,VALID,-0.0849042,VALID,20.4243,VALID,313,VALID,0.188388,
2005-06-08, 01:29:00,VALID,916.541,VALID,0,VALID,99.0338,VALID,-0.0509425,VALID,20.4338,VALID,313,VALID,0.012429,
2005-06-08, 01:30:00,VALID,916.527,VALID,0,VALID,99.0262,VALID,-0.0849042,VALID,20.4338,VALID,312,VALID,0.205966,
2005-06-08, 01:31:00,VALID,916.526,VALID,0,VALID,99.086,VALID,-0.0679233,VALID,20.4462,VALID,298,VALID,0.374455,
2005-06-08, 01:32:00,VALID,916.516,VALID,0,VALID,99.0872,VALID,-0.0849042,VALID,20.447,VALID,245,VALID,0.278201,
2005-06-08, 01:33:00,VALID,916.524,VALID,0,VALID,99.1432,VALID,-0.0679233,VALID,20.447,VALID,245,VALID,0.128196,
2005-06-08, 01:34:00,VALID,916.521,VALID,0,VALID,99.1763,VALID,-0.101885,VALID,20.4437,VALID,215,VALID,0.393043,
2005-06-08, 01:35:00,VALID,916.512,VALID,0,VALID,99.161,VALID,-0.0849042,VALID,20.4472,VALID,198,VALID,0.373242,
2005-06-08, 01:36:00,VALID,916.503,VALID,0,VALID,99.2093,VALID,-0.0849042,VALID,20.4338,VALID,198,VALID,0.139898,
2005-06-08, 01:37:00,VALID,916.491,VALID,0,VALID,99.2208,VALID,-0.0339617,VALID,20.4427,VALID,198,VALID,0.0403054,
2005-06-08, 01:38:00,VALID,916.486,VALID,0,VALID,99.0885,VALID,0.0339617,VALID,20.4613,VALID,198,VALID,0.0889137,
2005-06-08, 01:39:00,VALID,916.491,VALID,0,VALID,98.9792,VALID,0.0339617,VALID,20.4707,VALID,198,VALID,0,
2005-06-08, 01:40:00,VALID,916.492,VALID,0,VALID,98.7096,VALID,0.0509425,VALID,20.478,VALID,198,VALID,0.203307,
2005-06-08, 01:41:00,VALID,916.482,VALID,0,VALID,98.6511,VALID,0.0339617,VALID,20.4807,VALID,198,VALID,0.102805,
2005-06-08, 01:42:00,VALID,916.479,VALID,0,VALID,98.5099,VALID,0.0509425,VALID,20.4871,VALID,198,VALID,0.114347,
2005-06-08, 01:43:00,VALID,916.474,VALID,0,VALID,98.5366,VALID,0.0509425,VALID,20.5006,VALID,198,VALID,0,
2005-06-08, 01:44:00,VALID,916.46,VALID,0,VALID,98.59,VALID,0.0509425,VALID,20.513,VALID,207,VALID,0.0729167,
2005-06-08, 01:45:00,VALID,916.438,VALID,0,VALID,98.3344,VALID,0.0509425,VALID,20.4968,VALID,235,VALID,0.118229,
2005-06-08, 01:46:00,VALID,916.422,VALID,0,VALID,98.3891,VALID,0.101885,VALID,20.5234,VALID,235,VALID,0.160823,
2005-06-08, 01:47:00,VALID,916.403,VALID,0,VALID,98.4794,VALID,0.0849042,VALID,20.5356,VALID,235,VALID,0.184722,
2005-06-08, 01:48:00,VALID,916.383,VALID,0,VALID,98.5621,VALID,0.101885,VALID,20.5423,VALID,275,VALID,0.302284,
2005-06-08, 01:49:00,VALID,916.389,VALID,0,VALID,98.4845,VALID,0.0509425,VALID,20.5356,VALID,341,VALID,0.597656,
2005-06-08, 01:50:00,VALID,916.373,VALID,0,VALID,97.9631,VALID,0.0679233,VALID,20.5057,VALID,348,VALID,0.696584,
2005-06-08, 01:51:00,VALID,916.366,VALID,0,VALID,97.9619,VALID,0.0679233,VALID,20.5321,VALID,6,VALID,0.928416,
2005-06-08, 01:52:00,VALID,916.379,VALID,0,VALID,97.9733,VALID,0.0849042,VALID,20.5358,VALID,355,VALID,0.570494,
2005-06-08, 01:53:00,VALID,916.372,VALID,0,VALID,98.145,VALID,0.0849042,VALID,20.5224,VALID,349,VALID,0.241425,
2005-06-08, 01:54:00,VALID,916.364,VALID,0,VALID,98.1577,VALID,0.0679233,VALID,20.5033,VALID,344,VALID,0.6008,
2005-06-08, 01:55:00,VALID,916.34,VALID,0,VALID,97.9898,VALID,0.0679233,VALID,20.461,VALID,318,VALID,0.616815,
2005-06-08, 01:56:00,VALID,916.323,VALID,0,VALID,98.1552,VALID,0.0509425,VALID,20.4675,VALID,330,VALID,0.441692,
2005-06-08, 01:57:00,VALID,916.296,VALID,0,VALID,98.4006,VALID,0.0679233,VALID,20.468,VALID,356,VALID,0.59809,
2005-06-08, 01:58:00,VALID,916.269,VALID,0,VALID,98.4553,VALID,0.0849042,VALID,20.4479,VALID,357,VALID,0.560785,
2005-06-08, 01:59:00,VALID,916.269,VALID,0,VALID,98.3929,VALID,0.0849042,VALID,20.4389,VALID,341,VALID,0.291788,
2005-06-08, 02:00:00,VALID,916.261,VALID,0,VALID,98.4794,VALID,0.0509425,VALID,20.4223,VALID,341,VALID,0.284299,
2005-06-08, 02:01:00,VALID,916.269,VALID,0,VALID,98.688,VALID,0.0509425,VALID,20.4196,VALID,7,VALID,0.652158,
2005-06-08, 02:02:00,VALID,916.298,VALID,0,VALID,98.8177,VALID,0.0509425,VALID,20.4096,VALID,14,VALID,0.846657,
2005-06-08, 02:03:00,VALID,916.305,VALID,0,VALID,98.8685,VALID,0.0169808,VALID,20.3967,VALID,21,VALID,0.948219,
2005-06-08, 02:04:00,VALID,916.309,VALID,0,VALID,98.8634,VALID,0.0339617,VALID,20.3935,VALID,21,VALID,1.08594,
2005-06-08, 02:05:00,VALID,916.316,VALID,0,VALID,98.7935,VALID,0.0169808,VALID,20.3741,VALID,18,VALID,1.00372,
2005-06-08, 02:06:00,VALID,916.31,VALID,0,VALID,98.7388,VALID,0.0679233,VALID,20.3545,VALID,15,VALID,1.02562,
2005-06-08, 02:07:00,VALID,916.288,VALID,0,VALID,98.7617,VALID,0.0509425,VALID,20.3418,VALID,14,VALID,1.09908,
2005-06-08, 02:08:00,VALID,916.264,VALID,0,VALID,98.8139,VALID,0,VALID,20.3259,VALID,11,VALID,1.10397,
2005-06-08, 02:09:00,VALID,916.229,VALID,0,VALID,98.7477,VALID,0,VALID,20.3259,VALID,10,VALID,1.0941,
2005-06-08, 02:10:00,VALID,916.204,VALID,0,VALID,98.5506,VALID,0,VALID,20.316,VALID,9,VALID,1.03924,
2005-06-08, 02:11:00,VALID,916.162,VALID,0,VALID,98.5315,VALID,0,VALID,20.3359,VALID,2,VALID,0.853743,
2005-06-08, 02:12:00,VALID,916.118,VALID,0,VALID,98.3561,VALID,0.0169808,VALID,20.3386,VALID,356,VALID,0.684451,
2005-06-08, 02:13:00,VALID,916.068,VALID,0,VALID,98.3065,VALID,0,VALID,20.3485,VALID,341,VALID,0.690278,
2005-06-08, 02:14:00,VALID,916.021,VALID,0,VALID,98.2569,VALID,0,VALID,20.3614,VALID,332,VALID,0.471058,
2005-06-08, 02:15:00,VALID,915.965,VALID,0,VALID,98.2213,VALID,0.0169808,VALID,20.3744,VALID,329,VALID,0.505435,
2005-06-08, 02:16:00,VALID,915.941,VALID,0,VALID,98.309,VALID,0.0169808,VALID,20.4072,VALID,328,VALID,0.319957,
2005-06-08, 02:17:00,VALID,915.935,VALID,0,VALID,98.398,VALID,0,VALID,20.4034,VALID,329,VALID,0.040483,
2005-06-08, 02:18:00,VALID,915.947,VALID,0,VALID,98.5176,VALID,0,VALID,20.4233,VALID,345,VALID,0.355923,
2005-06-08, 02:19:00,VALID,915.961,VALID,0,VALID,98.6256,VALID,0,VALID,20.4263,VALID,9,VALID,0.717901,
2005-06-08, 02:20:00,VALID,915.985,VALID,0,VALID,98.6117,VALID,0,VALID,20.4268,VALID,13,VALID,0.746838,
2005-06-08, 02:21:00,VALID,916.024,VALID,0,VALID,98.5481,VALID,0,VALID,20.3903,VALID,13,VALID,0.891927,
2005-06-08, 02:22:00,VALID,916.036,VALID,0,VALID,98.5455,VALID,0,VALID,20.3843,VALID,13,VALID,1.03162,
2005-06-08, 02:23:00,VALID,916.029,VALID,0,VALID,98.468,VALID,-0.0169808,VALID,20.3585,VALID,12,VALID,1.27289,
2005-06-08, 02:24:00,VALID,916.016,VALID,0,VALID,98.3853,VALID,0,VALID,20.3453,VALID,9,VALID,1.27899,
2005-06-08, 02:25:00,VALID,915.978,VALID,0,VALID,98.2658,VALID,0,VALID,20.3356,VALID,5,VALID,1.225,
2005-06-08, 02:26:00,VALID,915.935,VALID,0,VALID,98.2327,VALID,0.0169808,VALID,20.3456,VALID,2,VALID,0.722124,
2005-06-08, 02:27:00,VALID,915.877,VALID,0,VALID,98.1183,VALID,0.0169808,VALID,20.3391,VALID,347,VALID,0.96189,
2005-06-08, 02:28:00,VALID,915.814,VALID,0,VALID,98.178,VALID,0.0169808,VALID,20.3289,VALID,331,VALID,0.608631,
2005-06-08, 02:29:00,VALID,915.763,VALID,0,VALID,98.2912,VALID,0,VALID,20.3324,VALID,301,VALID,0.486861,
2005-06-08, 02:30:00,VALID,915.706,VALID,0,VALID,98.1246,VALID,0,VALID,20.3356,VALID,289,VALID,0.573475,
2005-06-08, 02:31:00,VALID,915.66,VALID,0,VALID,98.1374,VALID,0,VALID,20.3617,VALID,289,VALID,0.233132,
2005-06-08, 02:32:00,VALID,915.652,VALID,0,VALID,98.3421,VALID,0.0169808,VALID,20.3614,VALID,289,VALID,0.0661204,
2005-06-08, 02:33:00,VALID,915.638,VALID,0,VALID,98.44,VALID,0,VALID,20.3448,VALID,289,VALID,0.222396,
2005-06-08, 02:34:00,VALID,915.641,VALID,0,VALID,98.6689,VALID,0,VALID,20.345,VALID,357,VALID,0.567336,
2005-06-08, 02:35:00,VALID,915.656,VALID,0,VALID,99.044,VALID,0.0339617,VALID,20.3421,VALID,10,VALID,0.26391,
2005-06-08, 02:36:00,VALID,915.682,VALID,0,VALID,99.3683,VALID,0.0169808,VALID,20.3547,VALID,10,VALID,0.384663,
2005-06-08, 02:37:00,VALID,915.706,VALID,0,VALID,99.4611,VALID,0,VALID,20.3386,VALID,9,VALID,0.34702,
2005-06-08, 02:38:00,VALID,915.714,VALID,0,VALID,99.4522,VALID,-0.0169808,VALID,20.3001,VALID,13,VALID,0.559837,
2005-06-08, 02:39:00,VALID,915.706,VALID,0,VALID,99.4954,VALID,0.0169808,VALID,20.2579,VALID,352,VALID,0.875178,
2005-06-08, 02:40:00,VALID,915.705,VALID,0,VALID,99.5463,VALID,0,VALID,20.2519,VALID,353,VALID,0.90346,
2005-06-08, 02:41:00,VALID,915.688,VALID,0,VALID,99.5654,VALID,-0.0169808,VALID,20.2352,VALID,354,VALID,0.588481,
2005-06-08, 02:42:00,VALID,915.678,VALID,0,VALID,99.5654,VALID,0,VALID,20.242,VALID,350,VALID,0.618862,
2005-06-08, 02:43:00,VALID,915.639,VALID,0,VALID,99.442,VALID,0,VALID,20.2191,VALID,357,VALID,0.583147,
2005-06-08, 02:44:00,VALID,915.612,VALID,0,VALID,99.4649,VALID,0,VALID,20.2355,VALID,3,VALID,0.365734,
2005-06-08, 02:45:00,VALID,915.603,VALID,0,VALID,99.4967,VALID,-0.0169808,VALID,20.242,VALID,2,VALID,0.472479,
2005-06-08, 02:46:00,VALID,915.598,VALID,0,VALID,99.3721,VALID,0,VALID,20.2293,VALID,334,VALID,0.804874,
2005-06-08, 02:47:00,VALID,915.603,VALID,0,VALID,99.2882,VALID,0,VALID,20.2387,VALID,356,VALID,0.48274,
2005-06-08, 02:48:00,VALID,915.604,VALID,0,VALID,99.3492,VALID,0,VALID,20.2223,VALID,21,VALID,0.635764,
2005-06-08, 02:49:00,VALID,915.616,VALID,0,VALID,99.2996,VALID,0,VALID,20.2161,VALID,18,VALID,0.728261,
2005-06-08, 02:50:00,VALID,915.62,VALID,0,VALID,99.2691,VALID,0,VALID,20.2067,VALID,3,VALID,0.747049,
2005-06-08, 02:51:00,VALID,915.623,VALID,0,VALID,99.2971,VALID,0,VALID,20.2134,VALID,350,VALID,0.674851,
2005-06-08, 02:52:00,VALID,915.627,VALID,0,VALID,99.2195,VALID,0,VALID,20.2062,VALID,347,VALID,0.714143,
2005-06-08, 02:53:00,VALID,915.648,VALID,0,VALID,99.1839,VALID,0,VALID,20.2132,VALID,359,VALID,0.749467,
2005-06-08, 02:54:00,VALID,915.644,VALID,0,VALID,99.2093,VALID,0,VALID,20.2032,VALID,1,VALID,0.923828,
2005-06-08, 02:55:00,VALID,915.654,VALID,0,VALID,99.1585,VALID,0,VALID,20.1873,VALID,355,VALID,0.896257,
2005-06-08, 02:56:00,VALID,915.671,VALID,0,VALID,99.1534,VALID,-0.0169808,VALID,20.1938,VALID,355,VALID,1.07849,
2005-06-08, 02:57:00,VALID,915.685,VALID,0,VALID,99.044,VALID,0,VALID,20.1908,VALID,341,VALID,1.22153,
2005-06-08, 02:58:00,VALID,915.687,VALID,0,VALID,99.0008,VALID,-0.0169808,VALID,20.2099,VALID,353,VALID,0.702939,
2005-06-08, 02:59:00,VALID,915.707,VALID,0,VALID,98.9703,VALID,0,VALID,20.2199,VALID,344,VALID,0.977706,
2005-06-08, 03:00:00,VALID,915.707,VALID,0,VALID,98.913,VALID,0,VALID,20.2129,VALID,346,VALID,0.539773,
2005-06-08, 03:01:00,VALID,915.72,VALID,0,VALID,98.9639,VALID,0,VALID,20.2263,VALID,340,VALID,0.557706,
2005-06-08, 03:02:00,VALID,915.715,VALID,0,VALID,98.8418,VALID,0,VALID,20.2358,VALID,338,VALID,0.873224,
2005-06-08, 03:03:00,VALID,915.729,VALID,0,VALID,98.8139,VALID,0,VALID,20.229,VALID,19,VALID,0.341751,
2005-06-08, 03:04:00,VALID,915.726,VALID,0,VALID,98.8342,VALID,-0.0169808,VALID,20.2328,VALID,311,VALID,0.310826,
2005-06-08, 03:05:00,VALID,915.73,VALID,0,VALID,99.002,VALID,-0.0169808,VALID,20.2293,VALID,334,VALID,0.371875,
2005-06-08, 03:06:00,VALID,915.72,VALID,0,VALID,98.9334,VALID,0,VALID,20.233,VALID,3,VALID,0.559832,
2005-06-08, 03:07:00,VALID,915.734,VALID,0,VALID,98.9283,VALID,-0.0169808,VALID,20.2226,VALID,352,VALID,0.579514,
2005-06-08, 03:08:00,VALID,915.712,VALID,0,VALID,98.9601,VALID,0.0679233,VALID,20.2285,VALID,345,VALID,0.482701,
2005-06-08, 03:09:00,VALID,915.711,VALID,0,VALID,99.0466,VALID,0.0509425,VALID,20.2347,VALID,2,VALID,0.810547,
2005-06-08, 03:10:00,VALID,915.681,VALID,0,VALID,98.9525,VALID,0.0509425,VALID,20.2221,VALID,4,VALID,1.05283,
2005-06-08, 03:11:00,VALID,915.664,VALID,0,VALID,98.8851,VALID,0.0509425,VALID,20.2258,VALID,351,VALID,1.01512,
2005-06-08, 03:12:00,VALID,915.634,VALID,0,VALID,98.8431,VALID,0.0169808,VALID,20.2097,VALID,350,VALID,1.19375,
2005-06-08, 03:13:00,VALID,915.618,VALID,0,VALID,98.8584,VALID,0.0679233,VALID,20.2062,VALID,351,VALID,0.835029,
2005-06-08, 03:14:00,VALID,915.593,VALID,0,VALID,98.7617,VALID,0,VALID,20.2196,VALID,331,VALID,1.76711,
2005-06-08, 03:15:00,VALID,915.58,VALID,0,VALID,98.6244,VALID,-0.0679233,VALID,20.2365,VALID,329,VALID,0.9871,
2005-06-08, 03:16:00,VALID,915.589,VALID,0,VALID,98.5722,VALID,-0.0679233,VALID,20.2666,VALID,313,VALID,0.363991,
2005-06-08, 03:17:00,VALID,915.568,VALID,0,VALID,98.6485,VALID,-0.0679233,VALID,20.2365,VALID,340,VALID,0.747904,
2005-06-08, 03:18:00,VALID,915.566,VALID,0,VALID,98.7821,VALID,-0.0849042,VALID,20.2303,VALID,360,VALID,0.822027,
2005-06-08, 03:19:00,VALID,915.569,VALID,0,VALID,98.9308,VALID,-0.0169808,VALID,20.2306,VALID,5,VALID,0.781795,
2005-06-08, 03:20:00,VALID,915.583,VALID,0,VALID,99.0453,VALID,-0.101885,VALID,20.1975,VALID,339,VALID,0.667683,
2005-06-08, 03:21:00,VALID,915.592,VALID,0,VALID,99.1457,VALID,-0.0849042,VALID,20.1819,VALID,347,VALID,0.7766,
2005-06-08, 03:22:00,VALID,915.623,VALID,0,VALID,99.1165,VALID,-0.0849042,VALID,20.1851,VALID,339,VALID,0.758743,
2005-06-08, 03:23:00,VALID,915.626,VALID,0,VALID,99.0987,VALID,-0.0339617,VALID,20.1948,VALID,333,VALID,0.855978,
2005-06-08, 03:24:00,VALID,915.611,VALID,0.2,VALID,99.0491,VALID,-0.0509425,VALID,20.1916,VALID,333,VALID,0.666667,
2005-06-08, 03:25:00,VALID,915.62,VALID,0,VALID,99.2017,VALID,-0.0679233,VALID,20.1888,VALID,339,VALID,0.35902,
2005-06-08, 03:26:00,VALID,915.603,VALID,0,VALID,99.2386,VALID,-0.0679233,VALID,20.1749,VALID,349,VALID,1.03087,
2005-06-08, 03:27:00,VALID,915.598,VALID,0,VALID,99.2704,VALID,-0.0679233,VALID,20.1789,VALID,8,VALID,0.74673,
2005-06-08, 03:28:00,VALID,915.594,VALID,0,VALID,99.2093,VALID,-0.101885,VALID,20.1757,VALID,347,VALID,0.632999,
2005-06-08, 03:29:00,VALID,915.592,VALID,0,VALID,99.2373,VALID,-0.0849042,VALID,20.1757,VALID,313,VALID,0.420277,
2005-06-08, 03:30:00,VALID,915.58,VALID,0,VALID,99.2335,VALID,-0.0849042,VALID,20.1888,VALID,355,VALID,0.784412,
2005-06-08, 03:31:00,VALID,915.587,VALID,0,VALID,99.2945,VALID,-0.0169808,VALID,20.2013,VALID,355,VALID,0.5242,
2005-06-08, 03:32:00,VALID,915.589,VALID,0,VALID,99.3937,VALID,-0.0509425,VALID,20.2013,VALID,360,VALID,0.360328,